Weather Roundup
Issued by NWS Corpus Christi, TX

Home | Current Version | Previous Version | Text Only | Print | Product List | Glossary On
Versions: 1 2 3 4 5 6 7 8 9 10 11 12 13 14 15 16 17 18 19 20 21 22 23 24 25 26 27 28 29 30 31 32 33 34 35 36 37 38 39 40 41 42 43 44 45 46 47 48 49 50
000
ASUS44 KCRP 291010
HRRCRP

SOUTH TEXAS REGIONAL WEATHER ROUNDUP
NATIONAL WEATHER SERVICE CORPUS CHRISTI TX
500 AM CDT FRI AUG 29 2014


TXZ229>244-291100-
...CORPUS CHRISTI AREA OBSERVATIONS...

CITY           SKY/WX    TMP DP  RH WIND       PRES   REMARKS
CORPUS CHRISTI CLOUDY    79  74  84 S10       29.80S
NAS CORPUS CHR MOCLDY    81  77  88 S10       29.80S
ROCKPORT       PTCLDY    84  77  79 SE15      29.81R HX  94
KINGSVILLE NAS CLOUDY    78  77  96 SE7       29.81R
ALICE          CLOUDY    77  76  96 SE6       29.81R
FALFURRIAS     CLOUDY    70  67  90 E12G17    29.80R
$$

...VICTORIA AREA OBSERVATIONS...

CITY           SKY/WX    TMP DP  RH WIND       PRES   REMARKS
VICTORIA       CLEAR     77  75  93 NE7       29.85R
BEEVILLE       FAIR      77  77 100 NE6       29.83S
PLEASANTON     PTCLDY    76  73  89 NE3       29.86S
SAN ANTONIO    MOCLDY    78  74  87 E6        29.89S
$$

...LAREDO AREA OBSERVATIONS...

CITY           SKY/WX    TMP DP  RH WIND       PRES   REMARKS
LAREDO         PTCLDY    81  74  79 E7        29.83F
COTULLA        PTCLDY    78  72  81 E7        29.84S
DEL RIO        CLEAR     80  69  69 E10       29.85S
MCALLEN        MOCLDY    81  75  82 CALM      29.78R
HEBBRONVILLE   PTCLDY    78  75  90 NE3       29.81F
$$

...OTHER TEXAS OBSERVATIONS...

CITY           SKY/WX    TMP DP  RH WIND       PRES   REMARKS
BROWNSVILLE    MOCLDY    82  79  90 S8        29.77F HX  92
HOUSTON        PTCLDY    79  75  89 NE6       29.87F
COL. STATION   PTCLDY    77  73  87 CALM      29.90R
AUSTIN         MOCLDY    77  73  87 NE3       29.90R
WACO           MOCLDY    78  70  76 W7        29.93R
FORT WORTH     CLOUDY    72  68  87 NW9       29.94S
WICHITA FALLS  CLOUDY    69  67  93 S5        29.90F
LUBBOCK        CLOUDY    66  64  93 NE9       29.98R FOG
EL PASO        FAIR      71  56  58 NE5       29.98S
$$

...MARINE OBSERVATIONS...

STATION/POSITION TIME  SKY/WX   TEMP    WIND        PRES    VSBY  WAVE   SWELL
                                AIR SEA DIR/SP/G                  HT/PER HT/PER
                 (UTC)          (F)     (DEG/KT/KT) (MB)    (MI)  (FT/S) (FT/S)
PORT ARANSAS     1000            79 85  120/ 19/ 21 1009.6R
BUOY 90 E PORT A 1000            85 86  110/ 14/ 16 1009.5F         5/ 7   2/ 7
BUOY 45 SE BAFFI 1000            85 85  140/ 17/ 19 1007.7F         4/ 6
BUOY 200 E PT IS 1000            83 87  120/ 16/ 19 1008.4F         5/ 6   2/15
BUOY 15 E GALVES 1000            85 86  120/ 14/ 17 1010.5F         4/ 5   2/ 7
$$


USA.gov is the U.S. government's official web portal to all federal, state and local government web resources and services.